Weather in Rudny

Russia / Primorsky Krai     44°16′41″N   134°57′24″E
temp.,
°C
wind,
m/s
gust,
m/s
humid.,
%
clouds,
%
prec.,
mm/h
press.,
hPa
HPBL,
m
8 march, mon
mon801:00−12w22910 0.0 102531
04:00−12w249417 0.0 1026183
07:00−12w3109353 0.0 1027381
10:00−7wnw5117038 0.0 1028902
13:00−3wnw49530 0.0 10271100
16:00−1wnw48520 0.0 10261129
19:00−6w22800 0.0 102523
22:00−8w12908 0.0 102721
9 march, tue
tue901:00−9w118936 0.0 102521
04:00−8w118150 0.0 102321
07:00−9w117819 0.0 102121
10:00−1wsw155743 0.0 1018280
13:00+5wsw5115167 0.0 10151372
16:00+3w7147264 0.1 10121616
19:00−3wnw7175391 0.9 10141830
22:00−5wnw7178572 1.1 10181568
10 march, wed
wed1001:00−6wnw8178477 0.3 10201651
04:00−7nw8207984 0.4 10211733
07:00−8nw7197527 0.0 10241346
10:00−6nw7166414 0.0 10261088
13:00−1nw510490 0.0 10261220
16:00−1wnw48440 0.0 10261065
19:00−5wnw23661 0.0 102651
22:00−6wnw127347 0.0 102729
11 march, thu
thu1101:00−6wnw1171100 0.0 102523
04:00−7wnw127380 0.1 102421
07:00−7wnw22912 0.0 102421
10:00−1wnw39695 0.0 1024531
13:00+3wnw48510 0.0 10251052
16:00+4wnw465333 0.0 10241052
19:00−2wnw237860 0.0 102534
22:00−4wnw228680 0.0 102736
12 march, fri
fri1201:00−6wnw228799 0.0 102734
04:00−7wnw228596 0.0 102732
07:00−8wnw227894 0.0 102834
10:00−2wnw244772 0.0 1028313
13:00+3nw36340 0.0 1029786
16:00+4nw35390 0.0 1027797
19:00−1wnw23630 0.0 102860
22:00−4w22690 0.0 103025